Mobridge, SD

11:46 PM CST on December 12, 2019 (GMT -0600)
Mobridge Municipal

Weather History for KMBG - November, 2019

Change the Weather History Date:

Sunday, November 17, 2019

  Actual Average Record
Temperature  
Mean Temperature 44 °F 31 °F  
Max Temperature 50 °F 42 °F 73 °F (1953)
Min Temperature 37 °F 20 °F -8 °F (1959)
Degree Days  
Heating Degree Days 22    
Month to date heating degree days 604  
Since 1 July heating degree days 1455  
Cooling Degree Days 0    
Month to date cooling degree days 0  
Year to date cooling degree days 648  
Moisture  
Dew Point 33 °F    
Average Humidity 71    
Maximum Humidity 82    
Minimum Humidity 54    
Precipitation  
Precipitation 0.00 in 0.01 in 0.33 in (1918)
Month to date precipitation 0.40 0.40  
Year to date precipitation 27.91 17.35  
Snow  
Snow 0.00 in - 3.00 in (2016)
Month to date snowfall 3.8  
Since 1 July snowfall 9.4  
Snow Depth 0.00 in    
Sea Level Pressure  
Sea Level Pressure 29.93 in    
Wind  
Wind Speed 8 mph ()    
Max Wind Speed 16 mph    
Max Gust Speed 22 mph    
Visibility 10.0 miles    
Events      
T = Trace of Precipitation, MM = Missing Value Source: Averaged Metar Reports

Daily Weather History Graph

Daily Weather History Graph

Search for Another Location

Airport or City:

Astronomy

Nov. 17, 2019 Rise Set
Actual Time 7:43 AM CST 5:09 PM CST
Civil Twilight 7:11 AM CST 5:41 PM CST
Nautical Twilight 6:34 AM CST 6:17 PM CST
Astronomical Twilight 5:59 AM CST 6:52 PM CST
Moon 9:44 PM CST (11/17) 12:34 PM CST (11/17)
Length of Visible Light 10h 30m
Length of Day
9h 26m
Waning Gibbous, 73% of the Moon is Illuminated
Nov 17
Waning Gibbous
Nov 19
Last Quarter
Nov 26
New
Dec 4
First Quarter
Dec 11
Full

Hourly Weather History & Observations

Time (CST) Temp. Windchill Dew Point Humidity Pressure Visibility Wind Dir Wind Speed Gust Speed Precip Events Conditions
12:52 AM 39.9 °F 34.5 °F 33.1 °F 77% 30.04 in 10.0 mi NW 8.1 mph - N/A   Overcast
1:00 AM 39.9 °F 32.9 °F 33.1 °F 77% 30.01 in 10.0 mi NW 11.5 mph - N/A   Overcast
1:35 AM 39.9 °F 32.1 °F 32.0 °F 73% 30.01 in 10.0 mi WNW 13.8 mph - N/A   Overcast
1:52 AM 39.9 °F 32.9 °F 32.0 °F 73% 30.04 in 10.0 mi WNW 11.5 mph - N/A   Overcast
2:52 AM 39.9 °F 33.4 °F 33.1 °F 77% 30.04 in 10.0 mi NW 10.4 mph - N/A   Overcast
3:52 AM 39.9 °F 35.8 °F 33.1 °F 77% 30.03 in 10.0 mi West 5.8 mph - N/A   Overcast
4:52 AM 39.9 °F 32.5 °F 32.0 °F 73% 30.01 in 10.0 mi NNW 12.7 mph - N/A   Overcast
5:52 AM 39.0 °F 30.6 °F 32.0 °F 76% 30.03 in 10.0 mi NW 15.0 mph - N/A   Overcast
6:17 AM 39.0 °F 31.0 °F 32.0 °F 76% 30.00 in 10.0 mi NW 13.8 mph - N/A   Overcast
6:52 AM 39.0 °F 31.8 °F 32.0 °F 76% 30.03 in 10.0 mi NW 11.5 mph - N/A   Overcast
7:52 AM 37.9 °F 35.5 °F 32.0 °F 79% 30.02 in 10.0 mi West 3.5 mph - N/A   Overcast
8:52 AM 37.9 °F 32.7 °F 30.9 °F 76% 30.03 in 10.0 mi NW 6.9 mph - N/A   Overcast
9:03 AM 37.9 °F 30.9 °F 30.9 °F 76% 29.99 in 10.0 mi NW 10.4 mph - N/A   Overcast
9:18 AM 37.9 °F 33.5 °F 30.9 °F 76% 29.98 in 10.0 mi WNW 5.8 mph - N/A   Overcast
9:52 AM 37.9 °F 32.1 °F 30.9 °F 76% 30.01 in 10.0 mi WNW 8.1 mph - N/A   Overcast
10:52 AM 39.9 °F 34.5 °F 32.0 °F 73% 30.01 in 10.0 mi NW 8.1 mph - N/A   Overcast
11:14 AM 41.0 °F 37.1 °F 32.0 °F 70% 29.96 in 10.0 mi NW 5.8 mph - N/A   Scattered Clouds
11:52 AM 43.0 °F 41.3 °F 33.1 °F 68% 29.98 in 10.0 mi WSW 3.5 mph - N/A   Clear
12:52 PM 45.0 °F - 33.1 °F 63% 29.93 in 10.0 mi Calm Calm - N/A   Clear
1:52 PM 48.0 °F - 34.0 °F 58% 29.90 in 10.0 mi SSE 8.1 mph - N/A   Clear
2:52 PM 48.9 °F - 33.1 °F 54% 29.86 in 10.0 mi South 6.9 mph - N/A   Clear
3:52 PM 46.9 °F - 33.1 °F 59% 29.84 in 10.0 mi SSE 9.2 mph - N/A   Clear
6:52 PM 44.1 °F 40.8 °F 33.1 °F 65% 29.79 in 10.0 mi SSE 5.8 mph - N/A   Mostly Cloudy
7:52 PM 43.0 °F 38.8 °F 33.1 °F 68% 29.75 in 10.0 mi SE 6.9 mph - N/A   Mostly Cloudy
8:52 PM 43.0 °F 38.2 °F 34.0 °F 71% 29.72 in 10.0 mi SE 8.1 mph - N/A   Overcast
9:52 PM 43.0 °F 37.7 °F 34.0 °F 71% 29.70 in 10.0 mi SSE 9.2 mph - N/A   Mostly Cloudy
10:52 PM 43.0 °F 37.7 °F 34.0 °F 71% 29.67 in 10.0 mi SE 9.2 mph - N/A   Overcast
11:52 PM 43.0 °F 39.5 °F 34.0 °F 71% 29.66 in 10.0 mi South 5.8 mph - N/A   Overcast